Location: Владивосток
(43.1151°N, 131.8856°E)
Time: 00:09:50
(UTC+10:00)

EO-88 - Pass Details

Date: 08 July 2022
Orbit: 454 x 462 km, 97.3° (Epoch: 07 August)

Event Time Altitude Azimuth Distance (km) Brightness Sun altitude
Exits shadow 21:55:33 13° 120° (ESE) 1,434 ? -9.7°
Maximum altitude 21:57:51 24° 70° (ENE) 998 ? -10.0°
Drops below altitude 10° 22:00:44 10° 14° (NNE) 1,626 ? -10.4°
Sets 22:03:01 0° 1° (N) 2,505 ? -10.7°
